Weather in Kyzyl-Tuu

Kyrgyzstan     42°11′04″N   76°40′26″E
temp.,
°C
wind,
m/s
gust,
m/s
humid.,
%
clouds,
%
prec.,
mm/h
press.,
hPa
HPBL,
m
13 april, tue
tue1300:00+8wnw115477 0.0 102010
03:00+8wsw1158100 0.1 102010
06:00+8nw115984 0.1 102010
09:00+9nne224958 0.0 1021157
12:00+9ne3250100 0.0 1020342
15:00+9e2254100 0.0 1019261
18:00+8e1156100 0.1 1020119
21:00+9nw1157100 0.0 102111
14 april, wed
wed1400:00+9ese1159100 0.0 102110
03:00+8ene116197 0.0 102011
06:00+8ese0064100 0.0 102011
09:00+9n225620 0.0 1021296
12:00+9nne32535 0.0 1020421
15:00+9ne22545 0.0 1019312
18:00+8ene1152100 0.0 1018159
21:00+10e005441 0.0 101812
15 april, thu
thu1500:00+9se015495 0.0 101710
03:00+9ene1152100 0.0 101610
06:00+8ene11540 0.0 101610
09:00+10nnw11460 0.0 1017141
12:00+11nne32400 0.0 1016336
15:00+9ene2348100 0.0 1015216
18:00+9ene3349100 0.0 1014128
21:00+9ese225626 0.0 101666
16 april, fri
fri1600:00
03:00+9w115997 0.0 101410
06:00+8wnw115895 0.0 101410
09:00+10nne1150100 0.0 101494
12:00+11ene2244100 0.0 1014257
15:00+10ene2347100 0.0 1013223
18:00+11ne1142100 0.0 101296
21:00+11wsw5660100 0.1 1015122
17 april, sat
sat1700:00+10wsw117676 0.2 101617
03:00+9n12785 0.3 101516
06:00+8nw227797 0.3 101513
09:00+10nw1163100 0.0 1014149
12:00+11ne2154100 0.0 1014523
15:00+12e2153100 0.0 1012615
18:00+13ese2149100 0.0 1011409
21:00+11ne1261100 0.0 101215